www.pogodaiklimat.ru

Погода и климат >> Архив погоды >> Сирия >> Дамаск


АРХИВ ПОГОДЫ в Дамаске

Время (UTC), дата Ветер
(напр.,м/с)
 
Видим.   Явления Облачность Т
(С)
Тd
(С)
f
(%)
Тe
(С)
Тes
(С)
Комфортность P
(гПа)
Po
(гПа)
Тmin
(С)
Tmax
(С)
R
(мм)
R24
(мм)
S
(см)
15 13.07 С 6 15 км ясно +32.4 +5.0 18 +30 +31 жарко 1003.4 936.8
21 13.07 З 8 15 км ясно +21.4 +14.8 66 +24 +24 комфорт 1005.3 938.6
00 14.07 З 3 15 км ясно +19.0 +15.0 78 +20 +20 по сезону 1004.8 938.1
03 14.07 З 3 15 км ясно +18.4 +16.1 86 +19 +19 прохладно 1005.7 938.7
06 14.07 З 2 15 км ясно +23.2 +15.7 63 +28 +37 душно 1006.4 939.2 +18.3
09 14.07 ЮЗ 2 15 км ясно +30.8 +10.8 29 +31 +52 опасность
солнечного
удара
1005.9 939.0
12 14.07 СВ 2 15 км ясно +35.8 +6.2 16 +33 +49 жарко 1003.3 936.9
15 14.07 ЮЗ 9 15 км ясно +33.8 +3.6 15 +31 +31 жарко 1002.4 935.7
18 14.07 ЮЗ 6 15 км ясно +26.8 +9.3 33 +27 +27 жарко 1003.1 936.3 +37.2
21 14.07 Ю 1 15 км ясно +22.5 +5.1 32 +23 +23 комфорт 1003.1 936.5
00 15.07 ЮЗ 5 15 км ясно +20.0 +11.2 57 +21 +21 комфорт 1003.8 937.5
03 15.07 ЮЗ 4 15 км ясно +19.0 +15.4 80 +20 +20 прохладно 1004.5 937.8
06 15.07 ЮЗ 2 15 км ясно +25.0 +12.5 46 +27 +37 жарко 1004.6 937.8 +18.7
09 15.07 штиль 0 10 км ясно +31.6 +7.1 22 +30 +58 опасность
солнечного
удара
1003.7 937.2
12 15.07 штиль 0 10 км ясно +35.4 +3.9 14 +32 +53 опасность
солнечного
удара
1002.0 935.7
15 15.07 штиль 0 15 км ясно +33.2 +7.6 20 +31 +34 жарко 1003.6 936.9
06 16.07 З 3 15 км ясно +25.2 +14.7 52 +28 +36 жарко 1006.1 939.2 +17.6
09 16.07 ЮЗ 6 15 км ясно +32.0 +4.2 17 +30 +38 жарко 1004.7 938.3
12 16.07 ЮЗ 7 15 км ясно +34.0 +5.1 16 +31 +36 жарко 1003.9 937.4
15 16.07 СЗ 5 15 км ясно +33.0 +6.2 19 +31 +32 жарко 1003.7 937.0
18 16.07 З 3 15 км ясно +27.6 +6.3 26 +27 +27 жарко 1004.8 938.0 +34.4
21 16.07 ЮЗ 2 15 км ясно +24.0 +12.1 47 +26 +26 жарко 1004.9 938.5
06 17.07 штиль 0 15 км ясно +25.6 +10.8 39 +27 +40 жарко 1004.4 937.7 +20.8
09 17.07 ЮЗ 7 10 км ясно +36.3 +4.8 14 +33 +39 жарко 1001.9 936.1
12 17.07 ЮЗ 13 10 км ясно +39.0 +5.8 13 +36 +36 очень
жарко
1000.1 934.3
15 17.07 ЮЗ 12 10 км ясно +36.0 +9.6 20 +35 +35 очень
жарко
1000.3 934.5
18 17.07 ЮЗ 5 10 км ясно +29.2 +8.8 28 +29 +29 жарко 1001.3 935.5 +39.2
21 17.07 ЮЗ 9 10 км ясно +26.2 +17.8 60 +31 +31 очень
душно
1002.0 936.9
00 18.07 ЮЗ 2 10 км ясно +23.0 +15.8 64 +27 +27 душно 1002.3 937.1
03 18.07 ЮЗ 5 10 км ясно +22.0 +17.8 77 +27 +27 душно 1002.4 937.0
06 18.07 ЮЗ 7 10 км ясно +26.2 +14.8 49 +29 +31 жарко 1003.3 937.8 +22.0
09 18.07 ЮЗ 15 10 км 4/4 900 м
[Cu hum]
+31.0 +11.1 29 +31 +31 жарко 1004.1 937.9
12 18.07 ЮЗ 10 10 км 4/4 900 м
[Cu hum]
+32.6 +6.8 20 +31 +31 жарко 1004.2 937.7
15 18.07 ЮЗ 12 10 км 3/3 900 м
[Cu hum]
+31.0 +4.8 19 +29 +29 жарко 1004.0 937.5
18 18.07 ЮЗ 8 10 км ясно +25.0 +12.0 44 +27 +27 жарко 1005.9 939.1 +32.6
21 18.07 ЮЗ 4 10 км ясно +22.0 +12.8 56 +25 +25 комфорт 1006.7 939.8
00 19.07 ЮЗ 5 10 км ясно +19.8 +13.8 68 +21 +21 комфорт 1006.9 940.0
03 19.07 ЮЗ 8 10 км ясно +19.0 +12.0 64 +19 +19 прохладно 1007.5 946.0
06 19.07 ЮЗ 3 10 км ясно +25.0 +12.8 47 +27 +35 жарко 1008.6 941.6 +20.0
09 19.07 ЮЗ 6 10 км ясно +30.6 +10.4 29 +31 +39 жарко 1008.1 941.1
15 19.07 Ю 6 10 км ясно +33.1 +11.1 26 +33 +34 жарко 1005.4 939.0
18 19.07 Ю 11 10 км ясно +26.2 +13.3 45 +28 +28 жарко 1006.5 940.1 +35.4
21 19.07 Ю 8 10 км ясно +22.2 +16.0 68 +26 +26 душно 1008.0 941.0
00 20.07 Ю 6 10 км ясно +20.2 +13.3 65 +22 +22 комфорт 1007.5 940.6
03 20.07 ЮЗ 4 10 км ясно +19.0 +16.0 83 +20 +20 прохладно 1007.6 940.7
06 20.07 ЮЗ 3 10 км ясно +23.8 +16.2 62 +27 +35 жарко 1008.8 941.7 +19.0
09 20.07 ЮЗ 2 15 км ясно +31.0 +14.5 37 +33 +54 опасность
солнечного
удара
1007.4 940.6
12 20.07 штиль 0 15 км ясно +35.8 +8.7 19 +34 +54 опасность
солнечного
удара
1005.3 938.9

 

Местоположение метеостанции Дамаск (Сирия): широта 33.42 долгота 36.52 высота над уровнем моря 609 м.

В архиве по умолчанию представлена погода в Дамаске за последнюю неделю. Архивные данные за месяц целиком и за предыдущие месяцы, начиная с января 2011 года, Вы можете получить, выбрав интересующий диапазон дат из раскрывающегося списка и нажав кнопку "Ввод!".


*Определитесь, кто Вы:
робот инопланетянин человек

Внимание! Время в таблицах - всемирное. Для получения местного времени необходимо прибавить поправку, которая равна 2 ч.

Смотрите также архив погоды в соседних городах и на ближайших метеорологических станциях:

Погода в Эн-Набке (Сирия) (70 км)
Погода в Хоуч-аль-Омаре (Ливан) (76 км)
Погода в Даръа (Сирия) (99 км)
Погода в Бейруте (Ливан) (105 км)
Погода в Цфате (Израиль) (107 км)
Погода в Ирбиде (Иордания) (115 км)
Погода в Эль-Мафраке (Иордания) (119 км)
Погода в Капернауме (Израиль) (124 км)
Погода в Триполи (Ливан) (131 км)
Погода в Рош-ха-Никра (Израиль) (136 км)

Пояснения к столбцам:

Ветер - указаны скорость ветра в м/с - средняя за 10 мин, порывы в срок и между сроками (в фигурных скобках) и направление, откуда дует ветер: С - северный, СВ - северо-восточный, В - восточный, ЮВ - юго-восточный, Ю - южный, ЮЗ - юго-западный, З - западный, СЗ - северо-западный.
Видимость - горизонтальная дальность видимости в метрах или километрах. При видимости от 1 до 10 км при отсутствии осадков обычно наблюдается дымка, при ухудшении видимости до 1 км и менее - туман. В сухую погоду видимость может ухудшаться дымом, пылью или мглою.
Явления - указаны атмосферные явления, наблюдавшиеся в срок или в последний час перед сроком; фигурными скобками обозначены явления, наблюдавшиеся между сроками (за 1-3 часа до срока); квадратными скобками обозначены град или гололедные отложения с указанием их диаметра в мм.
Облачность - указаны через наклонную черту общая и нижняя облачность в баллах и высота нижней границы облаков в метрах; квадратными скобками обозначены формы облаков: Ci - перистые, Cs - перисто-слоистые, Cc - перисто-кучевые, Ac - высококучевые, As - высокослоистые, Sc - слоисто-кучевые, Ns - слоисто-дождевые, Cu - кучевые, Cb - кучево-дождевые. Подробнее классификацию облаков см. в Атласе облаков (PDF).
T - Температура воздуха - температура, измеренная на высоте 2 м над землей.
Td - Температура точки росы - температура, при понижении до которой содержащийся в воздухе водяной пар достигнет насыщения.
f - Относительная влажность воздуха - влажноcть воздуха, измеренная на высоте 2 м над землей.
Te - Эффективная температура - температура, которую ощущает одетый по сезону человек в тени. Характеристика душности погоды. При расчете учитывается влияние влажности воздуха и скорости ветра на теплоощущения человека.
Tes - Эффективная температура на солнце - температура, которую ощущает человек, с поправкой на солнечный нагрев. Характеристика знойности погоды. Зависит от высоты солнца над горизонтом, облачности и скорости ветра. Ночью, в пасмурную погоду, а также при ветре 12 м/с и более поправка равна нулю.
P - Атмосферное давление - приведенное к уровню моря атмосферное давление.
Po - Атмосферное давление - измеренное на уровне метеостанции атмосферное давление.
Tmin - Минимальная температура - минимум температуры воздуха на высоте 2 м над землей.
Tmax - Максимальная температура - максимум температуры воздуха на высоте 2 м над землей.
R - Количество осадков - Количество выпавших осадков за период времени, мм. При наведении курсора мыши на число - период времени, за который выпало указанное количество осадков.
R24 - Количество осадков - Количество выпавших осадков за 24 часа, мм.
S - Снежный покров - Высота снежного покрова, см. При наведении курсора мыши на число - состояние снежного покрова и степень покрытия местности в баллах.